Regional Weather Roundup
Issued by NWS Charleston, SC

Current Version | Previous Version | Text Only | Print | Product List | Glossary Off
Versions: 1 2 3 4 5 6 7 8 9 10 11 12 13 14 15 16 17 18 19 20 21 22 23 24 25 26 27 28 29 30 31 32 33 34 35 36 37 38 39 40 41 42 43 44 45 46 47 48 49 50
000 ASUS42 KCHS 221525 RWRCHS REGIONAL WEATHER ROUNDUP NATIONAL WEATHER SERVICE CHARLESTON SC 1100 AM EDT FRI AUG 22 2014 NOTE: "FAIR" INDICATES FEW OR NO CLOUDS BELOW 12,000 FEET WITH NO SIGNIFICANT WEATHER AND/OR OBSTRUCTIONS TO VISIBILITY. NOT ALL STATIONS ARE QUALITY CONTROLLED BY THE NATIONAL WEATHER SERVICE. USE DATA WITH CAUTION...ESPECIALLY DEWPOINT OBSERVATIONS. SCZ027-030-031-034>040-042>050-221600- ...SOUTH CAROLINA... CITY SKY/WX TMP DP RH WIND PRES REMARKS N CHARLESTON MOSUNNY 93 71 48 W6 30.04S HX 100 WATERFRONT PRK N/A 91 N/A N/A SW3 N/A FORT JOHNSON NOT AVBL MOUNT PLEASANT FAIR 91 75 59 SW6 30.04S HX 102 JOHNS ISLAND MOSUNNY 93 77 59 CALM 30.05S HX 107 PINOPOLIS N/A 90 73 58 SW2 29.97S HX 98 MONCKS CORNER NOT AVBL SUMMERVILLE FAIR 91 73 55 W5 30.05F HX 100 BEAUFORT MCAS MOSUNNY 92 72 51 N7 30.05S HX 99 BEAUFORT ARPT FAIR 90 73 58 NW6 30.05S HX 98 HILTON HEAD IS SUNNY 90 72 55 NW7 30.06S HX 96 GEORGETOWN NOT AVBL WALTERBORO SUNNY 93 64 38 NW7 30.06S HX 95 ORANGEBURG SUNNY 89 70 53 NW6 30.06S HX 94 BARNWELL FAIR 91 72 52 N8 30.07S HX 98 AIKEN FAIR 91 73 55 NW12G17 30.10F HX 100 MANNING FAIR 91 73 55 W6 30.03F HX 100 KINGSTREE NOT AVBL COLUMBIA PTSUNNY 91 70 49 NW5 30.04F HX 96 SUMTER SUNNY 91 74 57 W8 30.03S HX 100 FLORENCE MOSUNNY 91 70 49 W6 30.03F HX 96 MYRTLE BEACH SUNNY 90 73 58 W9 30.03F HX 98 N MYRTLE BEACH NOT AVBL $$ GAZ063-065-086>088-099>101-113>116-118-119-134-136>141-150-221600- ...GEORGIA... CITY SKY/WX TMP DP RH WIND PRES REMARKS SAVANNAH ARPT MOSUNNY 93 73 52 N6 30.06S HX 102 HUNTER AAF SUNNY 92 74 54 NW7 30.04S HX 101 FORT STEWART SUNNY 93 72 51 NW6 30.06R HX 100 STATESBORO NOT AVBL SYLVANIA SUNNY 92 77 59 NW7 30.07F HX 105 CLAXTON FAIR 93 77 59 NW6 30.07F HX 107 THOMSON SUNNY 91 78 65 W6 30.13S HX 106 AUGUSTA-BUSH SUNNY 92 71 50 N8 30.06S HX 98 AUGUSTA-DANIEL SUNNY 91 72 53 NW9 30.09R HX 98 SWAINSBORO FAIR 95 75 52 NW10G18 30.09S HX 107 VIDALIA N/A 90 73 58 N6 30.09S HX 98 ALMA SUNNY 90 73 57 NW7 30.09R HX 98 WAYCROSS SUNNY 92 78 62 N3 30.09R HX 108 JESUP N/A 95 77 55 N3 30.08S HX 109 BRUNSWICK SUNNY 91 72 52 NW7 30.07S HX 98 SAINT SIMONS SUNNY 90 74 59 VRB7 30.06R HX 99 $$ SCZ027-028-034-036>038-045-046-048>050-GAZ119-141-221600- ...LAKE AND SUPPLEMENTAL COASTAL OBSERVATIONS... STATION/POSITION TIME TEMP WIND PRES WAVE SWELL AIR SEA DIR/SP/G HT/PER HT/PER/DIR (UTC) (F) (DEG/KT/KT) (MB) (FT/S) (FT/S/D) UPR LAKE MARION NOT AVBL WINYAH BAY 1500 89 270/ 5 1017.0S LAKE MURRAY 1400 84 250/ 4/ 5 1016.9F ACE BASIN NERRS 1500 90 260/ 1 1018.0S FORT PULASKI 1500 89 300/ 8/ 10 1018.0S SAPELO ISLAND 1500 92 340/ 5 1019.0S $$ ANZ835-935-AMZ111-154-330-350-352-354-374-450-454-472-221600- ...C-MAN AND BUOY OBSERVATIONS... STATION/POSITION TIME TEMP WIND PRES WAVE SWELL AIR SEA DIR/SP/G HT/PER HT/PER/DIR (UTC) (F) (DEG/KT/KT) (MB) (FT/S) (FT/S/D) FOLLY BEACH CMAN 1500 87 180/ 5/ 6 1017.7F BUOY 41004 1500 84 84 270/ 6/ 6 1017.1R 2/ 8 2/ 8 BUOY 41008 1500 84 86 310/ 6/ 6 1017.9R 1/ 9 5E ST. MARYS GA 1500 83 N/A 1/ 9 FRYING PAN BUOY NOT AVBL BUOY 41025 1500 79 280/ 6/ 8 1015.5R 2/ 9 2/ 40/ 9 CAPE LOOKOUT NC 1500 85 270/ 9/ 11 1016.1S BUOY 41002 1358 82 82 260/ 12/ 14 1018.4R 2/ 5 2/110/ 8 BUOY 41010 1500 78 86 290/ 19/ 23 1019.3R 2/ 8 2/ 60/ 8 BUOY 41012 NOT AVBL ST AUGUSTINE FL 1500 89 250/ 4/ 5 1019.2F CAPERS NEARSHORE 1400 87 260/ 6/ 6 N/A FRIPP NEARSHORE NOT AVBL $$

USA.gov is the U.S. government's official web portal to all federal, state and local government web resources and services.